星链-5020 (STARLINK-5020 )

导读

STARLINK-5020是美国SpaceX星链互联网星座中的一颗卫星,于北京时间2023年2月2日8时发射入轨,属于星链低轨互联网卫星组网计划的组成部分,旨在为全球用户提供高速低延迟的宽带互联网服务,依托批量部署的低轨卫星星座架构,填补全球偏远地区等网络覆盖空白,助力全球互联网连通性提升。

Basic Information
目录编号:
55458
目录名称:
STARLINK-5020
国际标识:
2023-015K
轨道中心:
EARTH
卫星名称:
星链-5020
卫星全名:
星链-5020 (STARLINK-5020 )
卫星状态:
在轨 (已飞行1311 天)
发射日期:
2023-02-02 UTC
国别 :
美国 (US)
星等 :
--
Orbit Information
数据来源 国际轨道数据
星历时间: 2026-09-05T11:10:55+0800
14小时前
查看轨道信息
半长轴: 6861.206km
偏心率: 0.0001466
轨道倾角: 43.005°
近地点辐角 275.325°
升交点赤经 35.481°
平近点角 84.743°
近地点: 482.063km
远地点: 484.075km
周期: 94.267分钟
每日圈数: 15.275736
Detailed Information
固有亮度:
5
最大亮度:
2.5
卫星平台:
Starlink v1.5
覆盖范围:
全球
运营商:
太空探索技术公司
运营商所在国:
美国
制造商(研发单位):
太空探索技术公司
制造商所在国:
美国
使用方式:
暂无
Satellite Introduction
星链(Starlink)计划是由太空探索技术公司(SpaceX)提出的一个巨型低轨卫星互联网星座项目,计划在2019年至2024年间在太空搭建由约1.2万颗卫星组成的“星链”网络,其中1584颗将部署在地球上空550千米处的近地轨道,并从2020年开始工作。该卫星仍在工作。
2D Orbit Map
3D Orbit Map
Orbit Altitude Analysis Chart
Orbit Inclination Analysis Chart
Orbit Comprehensive Analysis Chart
View Comprehensive Chart
Conjunction Data List
Event ID Objects TCA Miss Dist (km) Collision Risk Probability Collision Risk Index (CRI) Action
CDM_260907-142605-545806-685521
2026-09-07T
14:26:41+0000
0.563 km
远距离
3.634036E-5 中风险 0.66
CDM_260907-164705-545806-685521
2026-09-07T
16:47:54+0000
0.860 km
远距离
9.215385E-6 低风险 0.54
CDM_260906-030805-545806-767623
2026-09-06T
03:08:17+0000
2.314 km
极远距离
1.716789E-6 低风险 0.4
CDM_260906-134505-545806-469821
2026-09-06T
13:45:09+0000
2.478 km
极远距离
1.626965E-6 低风险 0.39
CDM_260907-182205-545806-685521
2026-09-07T
18:22:03+0000
1.607 km
极远距离
1.234138E-6 低风险 0.37
CDM_260907-160005-545806-685521
2026-09-07T
16:00:50+0000
1.678 km
极远距离
1.099013E-6 低风险 0.36
CDM_260907-125205-545806-685521
2026-09-07T
12:52:31+0000
2.746 km
极远距离
4.28631E-7 极低风险 0.28